Regional Weather Roundup
Issued by NWS Cleveland, OH

Home | Current Version | Previous Version | Graphics & Text | Print | Product List | Glossary On
Versions: 1 2 3 4 5 6 7 8 9 10 11 12 13 14 15 16 17 18 19 20 21 22 23 24 25 26 27 28 29 30 31 32 33 34 35 36 37 38 39 40 41 42 43 44 45 46 47 48 49 50
000
ASUS41 KCLE 261810
RWRCLE
OHIO REGIONAL WEATHER ROUNDUP
NATIONAL WEATHER SERVICE CLEVELAND, OH
200 PM EDT SUN MAR 26 2017

NOTE: "FAIR" INDICATES FEW OR NO CLOUDS BELOW 12,000 FEET WITH NO
SIGNIFICANT WEATHER AND/OR OBSTRUCTIONS TO VISIBILITY.

OHZ001>008-015>018-024>027-034-035-043-044-261900-
   NORTHWEST OHIO

CITY           SKY/WX    TMP DP  RH WIND       PRES   REMARKS
DEFIANCE       CLOUDY    53  50  89 VRB3      29.92F FOG
FINDLAY        PTSUNNY   62  55  77 SE12      29.92F
TOLEDO EXPRESS CLOUDY    47  46  97 SE6       29.94F
TOLEDO EXEC    CLOUDY    49  48  97 VRB6      29.95F FOG
LIMA           LGT RAIN  60  55  83 S14G24    29.93F
$$

OHZ009>014-019>023-028>033-038-089-261900-
   NORTHEAST OHIO

CITY           SKY/WX    TMP DP  RH WIND       PRES   REMARKS
CLE-HOPKINS    LGT RAIN  65  49  56 S9        29.99F
CLE-LAKEFRONT  LGT RAIN  43  38  82 SW9       29.97R
CUY CO. ARPT   CLOUDY    70  50  49 S12G21    29.97F
LORAIN-ELYRIA  LGT RAIN  56  51  84 W6        29.98S
ASHTABULA      CLOUDY    68  50  52 S15G24    29.99F
AKRON-CANTON   LGT RAIN  60  52  74 SW16      30.01R
WOOSTER        LGT RAIN  60  51  72 S13       30.00S
MANSFIELD      CLOUDY    58  56  93 S13       29.97F
YOUNGSTOWN     CLOUDY    67  49  52 S13G21    29.99F
$$

OHZ042-051>053-060>062-070>072-077>081-261900-
  SOUTHWEST OHIO

CITY           SKY/WX    TMP DP  RH WIND       PRES   REMARKS
CINC-COVINGTON CLOUDY    62  58  86 S9        29.95F
CINC-LUNKEN    LGT RAIN  61  59  93 S6        29.97F
HAMILTON       CLOUDY    61  58  90 S7        29.96F
DAYTON         CLOUDY    59  56  89 S12       29.95F
WRIGHT-PAT AFB LGT RAIN  58  58 100 SE10      29.94F
DAYTON GENERAL LGT RAIN  58  56  93 S10       29.95F
WILMINGTON     CLOUDY    57  55  93 S7        29.98F
$$

OHZ036-037-039>041-045>050-054>059-063>069-073>076-082>088-261900-
  CENTRAL AND SOUTHEAST OHIO

CITY           SKY/WX    TMP DP  RH WIND       PRES   REMARKS
COLUMBUS       PTSUNNY   63  56  78 S14       29.98F
OSU AIRPORT    CLOUDY    60  56  86 S9        29.97F
BOLTON FIELD   RAIN      61  57  88 S10       29.99F FOG
RICKENBACK AFB LGT RAIN  60  57  88 S9        29.98S
NEWARK         CLOUDY    62  54  74 S16       29.98F
MARION         CLOUDY    62  56  80 S20G25    29.97F
LANCASTER      CLOUDY    65  56  72 S10       29.98F
ZANESVILLE     CLOUDY    62  53  72 S16G25    30.01F
NEW PHILLY     NOT AVBL
$$




USA.gov is the U.S. government's official web portal to all federal, state and local government web resources and services.